Weather History for Parsons, KS

Change the Weather History Date:

Saturday, March 15, 2014

  Actual Average Record
Temperature  
Mean Temperature 51 °F -  
Max Temperature 73 °F 58 °F 81 °F (2012)
Min Temperature 30 °F 34 °F 15 °F (1949)
Degree Days  
Heating Degree Days 14    
Growing Degree Days 1 (Base 50)    
Moisture  
Dew Point 45 °F    
Average Humidity 72    
Maximum Humidity 89    
Minimum Humidity 44    
Precipitation  
Precipitation 0.01 in - - ()
Sea Level Pressure  
Sea Level Pressure 29.87 in    
Wind  
Wind Speed 5 mph (South)    
Max Wind Speed 16 mph    
Max Gust Speed 24 mph    
Visibility 10 miles    
Events Rain , Thunderstorm    
Averages and records for this station are not official NWS values.
T = Trace of Precipitation, MM = Missing Value Source: NWS Daily Summary

Daily Weather History Graph

Daily Weather History Graph

Search for Another Location

Airport:

Trip Planner

Search our weather history database for the weather conditions in past years. The results will help you decide how hot, cold, wet, or windy it might be!

Date:

Astronomy

Mar. 15, 2014 Rise Set
Actual Time 7:32 AM CDT 7:29 PM CDT
Civil Twilight 7:07 AM CDT 7:55 PM CDT
Nautical Twilight 6:36 AM CDT 8:25 PM CDT
Astronomical Twilight 6:06 AM CDT 8:56 PM CDT
Moon 6:49 PM CDT (3/15) 6:44 AM CDT (3/15)
Length of Visible Light 12h 48m
Length of Day
11h 56m
Waxing Gibbous, 99% of the Moon is Illuminated
Mar 15
Waxing Gibbous
Mar 16
Full
Mar 23
Last Quarter
Mar 30
New
Apr 7
First Quarter

Hourly Weather History & Observations

Time (CDT) Temp. Windchill Dew Point Humidity Pressure Visibility Wind Dir Wind Speed Gust Speed Precip Events Conditions
12:52 AM 34.0 °F - 25.0 °F 70% 30.00 in 8.0 mi Calm Calm - N/A   Clear
1:52 AM 32.0 °F - 25.0 °F 75% 30.00 in 10.0 mi Calm Calm - N/A   Clear
2:52 AM 30.0 °F - 25.0 °F 82% 29.99 in 10.0 mi Calm Calm - N/A   Clear
3:52 AM 32.0 °F - 25.0 °F 75% 29.98 in 10.0 mi Calm Calm - N/A   Clear
4:52 AM 32.0 °F - 26.1 °F 79% 29.97 in 10.0 mi Calm Calm - N/A   Clear
5:52 AM 33.1 °F - 26.1 °F 75% 29.95 in 10.0 mi Calm Calm - N/A   Clear
6:52 AM 39.0 °F 36.8 °F 28.0 °F 65% 29.94 in 10.0 mi ESE 3.5 mph - N/A   Clear
7:52 AM 42.1 °F 40.2 °F 33.1 °F 70% 29.94 in 10.0 mi SE 3.5 mph - N/A   Clear
8:52 AM 48.9 °F - 41.0 °F 74% 29.95 in 9.0 mi South 4.6 mph - N/A   Clear
9:52 AM 57.9 °F - 46.9 °F 67% 29.94 in 10.0 mi South 12.7 mph - N/A   Clear
10:52 AM 63.0 °F - 48.9 °F 60% 29.93 in 10.0 mi SSE 10.4 mph - N/A   Clear
11:52 AM 66.9 °F - 50.0 °F 54% 29.91 in 10.0 mi South 12.7 mph 19.6 mph N/A   Clear
12:52 PM 71.1 °F - 50.0 °F 47% 29.88 in 10.0 mi SSW 16.1 mph 23.0 mph N/A   Partly Cloudy
1:52 PM 72.0 °F - 48.9 °F 44% 29.85 in 10.0 mi South 12.7 mph 19.6 mph N/A   Scattered Clouds
2:52 PM 70.0 °F - 48.9 °F 47% 29.82 in 10.0 mi South 12.7 mph 20.7 mph N/A   Mostly Cloudy
3:52 PM 69.1 °F - 50.0 °F 51% 29.80 in 10.0 mi South 9.2 mph 17.3 mph N/A   Mostly Cloudy
4:27 PM 64.9 °F - 51.1 °F 61% 29.80 in 10.0 mi South 12.7 mph 24.2 mph N/A Thunderstorm Overcast
4:49 PM 64.4 °F - 53.6 °F 68% 29.81 in 9.0 mi South 12.7 mph 19.6 mph 0.00 in Rain , Thunderstorm Light Thunderstorms and Rain
4:52 PM 63.0 °F - 54.0 °F 72% 29.81 in 10.0 mi SSE 11.5 mph 19.6 mph 0.00 in Rain , Thunderstorm Light Thunderstorms and Rain
5:04 PM 62.1 °F - 54.0 °F 75% 29.80 in 10.0 mi SSE 9.2 mph - 0.00 in Rain , Thunderstorm Light Rain
5:18 PM 62.1 °F - 55.0 °F 78% 29.80 in 10.0 mi SSE 5.8 mph - 0.00 in   Overcast
5:52 PM 61.0 °F - 55.0 °F 81% 29.80 in 10.0 mi South 3.5 mph - 0.00 in   Mostly Cloudy
6:52 PM 61.0 °F - 55.0 °F 81% 29.81 in 10.0 mi Calm Calm - N/A   Scattered Clouds
7:52 PM 57.0 °F - 53.1 °F 87% 29.82 in 10.0 mi NNW 9.2 mph - 0.00 in Rain Light Rain
8:15 PM 57.0 °F - 54.0 °F 89% 29.82 in 8.0 mi NW 11.5 mph - 0.00 in Rain , Thunderstorm Light Rain
8:30 PM 55.0 °F - 52.0 °F 89% 29.83 in 9.0 mi NNW 13.8 mph - 0.01 in Rain Light Rain
8:52 PM 55.0 °F - 52.0 °F 89% 29.82 in 10.0 mi North 12.7 mph - 0.01 in   Overcast
9:52 PM 55.0 °F - 50.0 °F 83% 29.82 in 10.0 mi North 5.8 mph - N/A   Overcast
10:52 PM 53.1 °F - 50.0 °F 89% 29.82 in 10.0 mi NW 3.5 mph - 0.00 in Rain Light Rain
11:52 PM 54.0 °F - 50.0 °F 86% 29.83 in 6.0 mi North 8.1 mph - 0.00 in Rain Rain